SCP
0 -0 -0 -0 -0 -0 -0 -0 -0 -0 -0 -0 0 0 -0 0 0 0 0 0 0 0 -0 -0 -0 -0 -0 -0 -0 -0 -0 -0 -0 0 0 0 0 0 0 0 0 0 0
-0 -0 0 0 0 0 0 0 -0 -0 -0 0 0 0 0 0 0 0 0 0 0 0 0 -0 -0 -0 0 0 0 0 0 0 0 -0 -0 -0 0 0 0 0 0 0 0
-0 0 0 1 0 0 0 0 0 0 0 0 0 0 0 0 0 0 0 0 0 0 0 -0 -0 0 0 0 -0 0 0 0 -0 -0 0 0 0 0 0 0 0 0 0
0 0 0 0 0 0 0 0 0 0 0 0 0 0 0 0 0 0 0 0 0 0 0 0 0 0 0 0 0 0 0 0 -0 -0 -0 -0 -0 0 0 0 0 0 0
0 0 0 0 0 0 0 0 0 0 0 0 0 0 0 0 0 0 0 0 0 0 0 0 0 0 0 0 0 0 0 -0 -0 -0 -0 0 0 0 0 0 0 0 0
-0 -0 -0 0 0 0 0 0 0 0 0 0 0 0 0 0 0 0 0 0 0 0 0 0 0 0 0 0 0 0 0 0 -0 -0 0 0 0 0 0 0 0 0 0
-0 -0 -0 -0 -0 -0 -0 0 0 0 0 0 0 0 0 0 0 0 0 0 0 0 0 0 0 0 0 0 0 0 0 0 0 0 0 0 0 -0 0 0 0 0 0
-0 -0 -0 -0 -0 -0 -0 0 0 0 0 0 0 0 0 0 0 0 0 0 0 0 0 0 0 0 0 0 0 0 0 0 0 0 0 0 0 1 1 1 1 0 0
-1 -1 -0 -0 -0 -0 -0 -0 0 0 0 0 0 0 0 0 0 0 0 0 0 0 0 0 0 0 0 0 0 0 0 0 0 0 0 0 1 1 1 1 0 0 0
-0 -1 -0 -0 -0 -0 -0 -0 -0 0 0 0 -0 -0 0 0 -0 0 0 0 0 0 0 0 0 0 0 0 0 0 0 0 0 0 0 0 1 1 1 0 0 0 0
0 -0 -0 -0 -0 -0 -0 -0 -0 -0 -0 -0 -0 -0 -0 0 0 -0 0 -0 -0 -0 0 0 0 0 0 0 0 0 0 0 0 0 0 0 1 0 0 0 0 0 0
0 0 -0 -0 -0 -0 -0 -0 -0 -0 -0 -0 -0 -0 0 0 0 -0 -0 -0 -0 -0 0 0 0 0 0 0 0 0 0 0 0 0 0 1 1 0 0 0 0 1 0
0 0 0 -0 -0 -0 0 -0 -0 -0 -0 -0 -0 -0 -0 0 0 0 0 0 1 0 0 0 0 0 0 0 0 0 1 0 0 0 0 0 0 0 0 0 0 0 0
0 0 0 -0 -0 -0 0 -0 -0 -0 -0 -0 -0 -0 -0 0 -0 0 0 0 0 1 0 0 0 0 0 0 2 2 2 1 1 1 0 0 0 0 0 0 0 0 0
0 0 0 0 0 0 -1 0 0 -0 -0 -0 -0 -0 -0 0 0 0 0 0 1 1 1 0 0 0 2 3 2 1 1 0 1 1 0 0 0 0 0 0 0 0 0
0 0 0 0 0 0 -0 -0 0 0 0 0 1 0 0 1 1 1 1 1 1 0 0 2 6 5 2 1 1 1 1 0 0 0 0 0 0 0 0 0 0 0 0
0 0 1 0 1 1 0 0 0 1 0 0 1 1 1 2 2 1 1 2 2 2 1 5 2 2 3 1 0 0 0 0 0 0 0 0 0 0 0 0 0 0 0
0 0 1 0 0 1 1 1 0 0 0 1 0 1 2 2 3 3 3 1 1 6 8 4 2 1 1 1 0 0 0 0 0 0 0 0 0 0 0 0 0 0 0
1 2 1 2 1 1 2 1 1 1 1 1 1 1 3 2 3 2 2 3 4 4 3 2 2 1 1 0 0 0 0 0 0 0 0 0 0 0 0 0 0 0 0
1 2 2 3 2 4 3 2 2 1 1 2 1 3 1 0 0 0 2 3 5 2 2 2 1 0 0 0 0 0 0 0 0 0 0 0 0 0 0 0 0 0 0
0 2 5 3 3 3 5 3 3 3 3 2 4 3 0 0 0 0 0 4 7 5 3 1 0 0 0 0 0 0 0 0 0 0 0 0 0 0 0 0 0 0 0
0 2 4 5 6 5 4 7 6 4 2 8 3 1 0 0 0 0 1 3 7 7 4 2 0 0 0 0 0 0 0 0 0 0 0 0 0 0 0 0 0 0 0
0 1 1 3 2 4 5 6 8 10 10 10 1 0 0 -0 0 0 1 1 2 5 4 0 0 0 0 0 0 0 0 0 0 0 0 0 0 0 0 0 0 0 0
-0 0 0 0 0 -0 2 3 2 6 5 5 3 2 0 0 1 2 3 5 7 6 4 1 1 0 0 0 0 0 0 0 0 0 0 0 0 0 0 0 0 0 0
-0 0 0 1 -0 1 2 1 2 1 3 1 2 2 3 2 2 4 5 6 4 4 1 0 0 0 0 0 0 0 0 0 0 0 0 0 0 0 0 0 0 0 0
1 2 0 0 1 2 1 2 1 -0 0 2 2 3 2 3 6 7 6 5 3 3 1 0 0 0 0 0 0 0 0 0 0 0 0 0 0 0 0 0 0 0 0
Wind_Speed_500mb
24 20 34 41 41 40 39 37 33 30 28 26 24 23 22 22 23 24 23 23 24 24 23 19 16 13 13 14 15 14 16 12 9 8 8 6 7 12 18 17 7 14 15
30 22 39 43 43 41 39 38 34 29 26 24 21 20 20 20 21 22 23 23 21 21 20 17 14 11 11 13 13 13 11 8 5 4 11 10 9 15 25 21 15 16 20
28 27 43 45 44 41 40 37 33 28 25 23 19 17 17 17 19 21 20 20 19 19 18 17 15 13 11 12 13 14 11 7 3 5 13 13 13 12 17 20 20 22 24
29 33 45 46 43 39 37 35 32 28 25 21 18 16 16 17 18 19 18 18 19 19 19 19 18 17 15 15 15 14 12 9 5 5 8 18 23 9 16 24 26 30 33
26 41 45 45 41 38 35 32 30 27 24 21 19 18 18 17 17 17 17 18 18 19 20 22 21 20 19 18 18 17 15 13 12 9 8 15 15 24 30 27 33 41 39
26 34 43 42 39 36 32 30 28 26 24 23 21 20 18 18 17 16 16 17 18 20 22 24 25 23 23 23 21 20 20 19 19 16 13 43 31 30 30 30 38 48 43
32 32 34 38 37 33 30 28 26 25 24 23 20 19 19 18 17 16 17 19 21 24 26 27 27 27 27 26 26 25 24 23 24 23 17 19 25 41 34 36 44 49 40
38 28 23 37 35 32 29 27 26 24 23 22 20 19 20 20 19 18 19 20 23 26 28 30 32 32 32 31 30 28 28 29 31 32 21 35 43 43 30 34 41 49 35
30 26 20 38 37 33 30 28 26 24 23 21 20 21 22 22 22 23 22 22 23 27 31 34 35 36 36 36 34 33 34 36 38 39 33 41 37 34 32 35 46 46 33
31 29 15 39 38 35 32 30 28 27 25 23 23 25 26 27 28 28 27 25 25 29 32 36 38 40 41 40 39 39 38 41 42 41 19 41 37 35 34 43 50 48 37
26 31 18 36 37 36 33 31 29 29 30 31 31 30 31 32 31 33 32 31 29 30 34 38 42 44 44 45 45 40 40 36 33 34 36 45 38 35 43 49 56 47 39
28 34 30 37 35 32 32 28 27 31 36 37 36 36 34 33 32 27 25 27 29 31 36 42 45 47 48 49 47 40 43 37 30 42 47 40 31 36 44 51 56 50 43
28 34 39 35 43 35 33 47 35 36 41 43 40 36 34 32 24 27 35 33 38 42 47 47 47 51 50 49 45 35 47 32 28 34 25 31 32 39 46 54 55 50 48
31 35 37 41 43 41 36 47 32 25 21 25 25 29 31 29 28 34 32 41 37 42 30 31 41 41 34 27 38 44 31 18 14 15 40 38 40 44 50 54 54 50 49
33 36 40 45 47 49 46 38 35 30 27 26 29 31 31 31 33 32 34 36 35 36 42 35 36 40 56 55 54 60 54 52 66 56 34 41 47 45 53 57 52 51 47
33 39 38 41 48 51 59 44 32 40 30 32 30 33 33 31 27 31 35 38 39 41 40 44 50 53 43 47 59 61 59 56 48 55 62 47 54 55 63 52 51 50 49
32 36 41 41 48 49 48 61 45 34 41 37 34 31 32 31 29 37 47 48 45 46 46 62 61 54 61 61 76 55 62 61 84 84 81 75 53 58 50 45 48 48 48
30 38 42 42 46 46 48 46 51 55 40 33 33 31 31 37 43 46 50 54 54 55 58 70 70 73 73 69 96 80 85 90 107 102 89 83 75 62 46 48 48 49 41
29 33 45 43 39 44 41 47 40 37 40 45 41 40 43 38 39 46 55 59 57 63 70 68 82 76 80 79 89 92 110 121 98 66 56 60 64 51 44 44 47 43 43
28 39 39 49 54 39 47 39 41 42 48 45 44 55 53 54 23 53 65 67 67 74 76 76 77 82 83 90 98 92 96 82 64 44 46 41 41 45 37 37 46 41 36
19 25 47 44 45 52 34 45 47 53 45 44 47 50 59 49 73 67 59 63 74 76 83 84 85 95 83 81 75 91 80 63 48 52 46 47 43 37 27 41 42 45 38
15 14 9 39 36 42 52 48 36 33 34 51 54 55 34 52 82 88 55 63 70 70 86 99 98 95 82 68 67 43 34 29 30 24 28 30 29 27 35 39 34 38 33
24 11 11 15 32 40 37 35 40 47 47 45 41 30 40 73 85 65 58 58 78 82 86 91 100 98 82 71 42 33 11 16 16 14 14 22 25 33 34 31 39 39 39
51 12 2 9 12 24 36 43 38 44 50 53 46 50 63 56 53 45 45 52 60 65 74 72 75 85 77 56 45 36 51 38 18 16 14 24 30 41 43 38 32 29 36
49 50 47 22 20 25 10 29 31 42 44 35 39 37 26 37 41 40 42 47 56 60 62 64 73 74 67 65 49 36 34 35 27 29 31 26 20 30 36 36 39 41 33
48 51 47 46 37 22 8 14 20 25 28 27 31 25 26 27 25 29 33 45 45 53 56 56 73 69 56 62 45 39 53 32 19 27 34 36 29 26 28 34 34 37 36
Wind_Direction_500mb
163 168 165 160 158 160 162 159 155 153 147 141 132 130 136 142 145 145 145 147 152 155 160 164 161 156 164 171 181 182 171 168 155 130 95 56 15 3 3 357 39 322 301
176 168 166 161 159 161 164 164 162 160 158 153 143 142 144 147 151 153 152 154 157 165 178 186 188 183 183 192 194 187 181 174 152 85 35 353 325 346 342 344 336 327 310
184 172 167 164 162 163 164 166 167 167 169 164 159 156 156 158 161 167 169 174 180 187 197 205 208 213 215 212 208 203 207 211 202 49 34 10 300 313 340 341 343 340 328
185 175 169 166 165 164 165 169 172 175 176 175 174 173 175 176 177 184 190 191 196 200 207 214 220 221 224 221 220 220 228 242 276 343 13 8 193 293 320 319 328 334 331
159 169 168 165 167 167 169 171 177 180 182 184 189 193 191 191 192 194 198 203 206 210 215 220 224 227 226 227 229 233 240 255 274 299 329 354 318 291 292 295 319 327 327
138 158 162 166 169 171 171 172 178 182 186 191 196 200 202 202 203 203 208 216 219 223 225 225 227 229 230 233 240 246 250 260 273 282 304 288 264 273 284 282 307 320 318
145 176 171 169 171 172 172 173 179 185 190 197 204 208 211 210 213 217 224 228 229 231 232 231 232 233 235 239 245 250 257 265 275 280 284 288 272 291 277 283 297 312 308
151 180 184 175 175 176 177 179 184 189 196 204 211 217 221 221 225 230 238 242 240 241 239 236 235 236 241 247 253 260 269 277 281 285 276 276 269 257 263 287 304 310 303
159 182 191 184 181 183 184 188 191 196 203 210 218 225 228 229 234 238 246 251 250 246 242 239 240 242 247 253 261 268 275 281 284 285 280 283 243 259 276 291 307 310 304
157 171 195 190 188 190 193 196 199 204 210 216 222 228 231 236 237 242 246 253 257 251 248 245 246 248 252 258 264 270 279 283 285 285 278 264 270 254 282 296 302 308 304
164 173 178 182 194 197 203 204 208 213 217 221 224 229 231 236 241 245 248 252 253 256 252 251 251 253 256 258 262 267 271 277 283 278 266 265 250 273 287 294 295 301 299
176 181 183 176 194 192 199 219 216 226 228 228 230 233 235 239 245 257 273 266 269 272 264 256 254 255 256 258 262 264 263 270 297 287 275 255 273 281 282 286 293 296 296
178 186 189 182 195 192 197 223 235 254 240 235 235 239 244 243 242 233 251 261 268 280 274 265 260 257 260 264 269 266 269 267 234 247 306 295 290 290 290 292 294 296 294
173 188 191 190 194 201 196 217 236 243 254 259 262 254 239 253 234 249 250 259 275 276 289 289 279 265 256 250 245 247 243 248 258 266 266 279 289 290 291 291 295 296 293
174 188 194 199 199 203 200 204 205 216 230 238 243 255 265 246 241 239 251 251 260 278 269 280 275 271 258 247 237 239 253 259 268 267 258 279 285 283 287 293 293 297 299
182 190 195 199 209 205 211 202 207 218 222 224 227 240 257 269 262 257 259 259 259 250 250 256 244 239 246 253 263 268 265 270 270 279 273 260 272 273 291 290 296 296 299
193 196 192 198 216 213 216 212 204 204 221 218 230 227 243 251 262 260 244 242 247 253 249 252 252 251 253 259 268 281 276 272 294 289 279 268 257 281 281 290 292 292 297
199 202 202 201 218 226 216 226 218 213 209 226 220 226 237 244 255 262 259 253 242 239 247 245 246 245 248 257 259 259 269 265 276 296 282 265 252 268 274 280 284 290 293
213 209 210 207 210 229 229 222 230 219 226 216 217 218 221 217 224 236 260 266 251 249 252 253 252 254 257 260 256 259 276 282 274 286 269 257 259 260 259 277 273 286 291
227 220 223 211 208 223 235 238 223 237 225 229 223 218 222 216 290 282 252 253 256 254 254 258 259 267 270 264 262 262 281 273 271 274 269 260 262 254 265 256 263 273 287
244 241 225 219 218 212 218 234 239 231 238 242 236 237 235 240 296 302 252 248 254 256 259 261 261 268 283 268 265 268 279 267 271 275 262 258 258 257 257 245 254 260 270
320 269 243 223 221 227 230 224 235 248 247 236 235 238 245 259 290 289 270 244 253 264 264 267 270 272 265 256 261 283 274 275 270 276 259 255 247 240 238 252 275 268 266
39 24 286 259 247 247 245 244 238 248 248 246 260 265 281 264 276 265 266 259 260 270 271 272 270 271 261 248 263 252 275 264 292 302 268 263 241 247 256 249 250 257 262
30 33 238 245 255 270 261 245 233 246 248 251 256 279 282 260 283 287 288 275 276 271 274 277 276 266 252 240 256 251 244 259 291 303 350 279 254 236 244 255 284 273 266
31 20 26 9 265 240 265 254 250 255 250 310 320 288 298 310 292 284 274 275 276 276 279 277 272 263 256 235 244 258 259 267 280 268 283 289 281 271 279 278 287 289 280
27 33 30 20 24 27 330 325 306 277 283 299 296 306 288 278 305 285 273 287 278 280 283 276 283 254 238 242 246 282 273 262 269 252 262 277 276 283 287 290 294 288 256
Wind_Speed_850mb
24 20 34 41 41 40 39 37 33 30 28 26 24 23 22 22 23 24 23 23 24 24 23 19 16 13 13 14 15 14 16 12 9 8 8 6 7 12 18 17 7 14 15
30 22 39 43 43 41 39 38 34 29 26 24 21 20 20 20 21 22 23 23 21 21 20 17 14 11 11 13 13 13 11 8 5 4 11 10 9 15 25 21 15 16 20
28 27 43 45 44 41 40 37 33 28 25 23 19 17 17 17 19 21 20 20 19 19 18 17 15 13 11 12 13 14 11 7 3 5 13 13 13 12 17 20 20 22 24
29 33 45 46 43 39 37 35 32 28 25 21 18 16 16 17 18 19 18 18 19 19 19 19 18 17 15 15 15 14 12 9 5 5 8 18 23 9 16 24 26 30 33
26 41 45 45 41 38 35 32 30 27 24 21 19 18 18 17 17 17 17 18 18 19 20 22 21 20 19 18 18 17 15 13 12 9 8 15 15 24 30 27 33 41 39
26 34 43 42 39 36 32 30 28 26 24 23 21 20 18 18 17 16 16 17 18 20 22 24 25 23 23 23 21 20 20 19 19 16 13 43 31 30 30 30 38 48 43
32 32 34 38 37 33 30 28 26 25 24 23 20 19 19 18 17 16 17 19 21 24 26 27 27 27 27 26 26 25 24 23 24 23 17 19 25 41 34 36 44 49 40
38 28 23 37 35 32 29 27 26 24 23 22 20 19 20 20 19 18 19 20 23 26 28 30 32 32 32 31 30 28 28 29 31 32 21 35 43 43 30 34 41 49 35
30 26 20 38 37 33 30 28 26 24 23 21 20 21 22 22 22 23 22 22 23 27 31 34 35 36 36 36 34 33 34 36 38 39 33 41 37 34 32 35 46 46 33
31 29 15 39 38 35 32 30 28 27 25 23 23 25 26 27 28 28 27 25 25 29 32 36 38 40 41 40 39 39 38 41 42 41 19 41 37 35 34 43 50 48 37
26 31 18 36 37 36 33 31 29 29 30 31 31 30 31 32 31 33 32 31 29 30 34 38 42 44 44 45 45 40 40 36 33 34 36 45 38 35 43 49 56 47 39
28 34 30 37 35 32 32 28 27 31 36 37 36 36 34 33 32 27 25 27 29 31 36 42 45 47 48 49 47 40 43 37 30 42 47 40 31 36 44 51 56 50 43
28 34 39 35 43 35 33 47 35 36 41 43 40 36 34 32 24 27 35 33 38 42 47 47 47 51 50 49 45 35 47 32 28 34 25 31 32 39 46 54 55 50 48
31 35 37 41 43 41 36 47 32 25 21 25 25 29 31 29 28 34 32 41 37 42 30 31 41 41 34 27 38 44 31 18 14 15 40 38 40 44 50 54 54 50 49
33 36 40 45 47 49 46 38 35 30 27 26 29 31 31 31 33 32 34 36 35 36 42 35 36 40 56 55 54 60 54 52 66 56 34 41 47 45 53 57 52 51 47
33 39 38 41 48 51 59 44 32 40 30 32 30 33 33 31 27 31 35 38 39 41 40 44 50 53 43 47 59 61 59 56 48 55 62 47 54 55 63 52 51 50 49
32 36 41 41 48 49 48 61 45 34 41 37 34 31 32 31 29 37 47 48 45 46 46 62 61 54 61 61 76 55 62 61 84 84 81 75 53 58 50 45 48 48 48
30 38 42 42 46 46 48 46 51 55 40 33 33 31 31 37 43 46 50 54 54 55 58 70 70 73 73 69 96 80 85 90 107 102 89 83 75 62 46 48 48 49 41
29 33 45 43 39 44 41 47 40 37 40 45 41 40 43 38 39 46 55 59 57 63 70 68 82 76 80 79 89 92 110 121 98 66 56 60 64 51 44 44 47 43 43
28 39 39 49 54 39 47 39 41 42 48 45 44 55 53 54 23 53 65 67 67 74 76 76 77 82 83 90 98 92 96 82 64 44 46 41 41 45 37 37 46 41 36
19 25 47 44 45 52 34 45 47 53 45 44 47 50 59 49 73 67 59 63 74 76 83 84 85 95 83 81 75 91 80 63 48 52 46 47 43 37 27 41 42 45 38
15 14 9 39 36 42 52 48 36 33 34 51 54 55 34 52 82 88 55 63 70 70 86 99 98 95 82 68 67 43 34 29 30 24 28 30 29 27 35 39 34 38 33
24 11 11 15 32 40 37 35 40 47 47 45 41 30 40 73 85 65 58 58 78 82 86 91 100 98 82 71 42 33 11 16 16 14 14 22 25 33 34 31 39 39 39
51 12 2 9 12 24 36 43 38 44 50 53 46 50 63 56 53 45 45 52 60 65 74 72 75 85 77 56 45 36 51 38 18 16 14 24 30 41 43 38 32 29 36
49 50 47 22 20 25 10 29 31 42 44 35 39 37 26 37 41 40 42 47 56 60 62 64 73 74 67 65 49 36 34 35 27 29 31 26 20 30 36 36 39 41 33
48 51 47 46 37 22 8 14 20 25 28 27 31 25 26 27 25 29 33 45 45 53 56 56 73 69 56 62 45 39 53 32 19 27 34 36 29 26 28 34 34 37 36
Wind_Direction_850mb
163 168 165 160 158 160 162 159 155 153 147 141 132 130 136 142 145 145 145 147 152 155 160 164 161 156 164 171 181 182 171 168 155 130 95 56 15 3 3 357 39 322 301
176 168 166 161 159 161 164 164 162 160 158 153 143 142 144 147 151 153 152 154 157 165 178 186 188 183 183 192 194 187 181 174 152 85 35 353 325 346 342 344 336 327 310
184 172 167 164 162 163 164 166 167 167 169 164 159 156 156 158 161 167 169 174 180 187 197 205 208 213 215 212 208 203 207 211 202 49 34 10 300 313 340 341 343 340 328
185 175 169 166 165 164 165 169 172 175 176 175 174 173 175 176 177 184 190 191 196 200 207 214 220 221 224 221 220 220 228 242 276 343 13 8 193 293 320 319 328 334 331
159 169 168 165 167 167 169 171 177 180 182 184 189 193 191 191 192 194 198 203 206 210 215 220 224 227 226 227 229 233 240 255 274 299 329 354 318 291 292 295 319 327 327
138 158 162 166 169 171 171 172 178 182 186 191 196 200 202 202 203 203 208 216 219 223 225 225 227 229 230 233 240 246 250 260 273 282 304 288 264 273 284 282 307 320 318
145 176 171 169 171 172 172 173 179 185 190 197 204 208 211 210 213 217 224 228 229 231 232 231 232 233 235 239 245 250 257 265 275 280 284 288 272 291 277 283 297 312 308
151 180 184 175 175 176 177 179 184 189 196 204 211 217 221 221 225 230 238 242 240 241 239 236 235 236 241 247 253 260 269 277 281 285 276 276 269 257 263 287 304 310 303
159 182 191 184 181 183 184 188 191 196 203 210 218 225 228 229 234 238 246 251 250 246 242 239 240 242 247 253 261 268 275 281 284 285 280 283 243 259 276 291 307 310 304
157 171 195 190 188 190 193 196 199 204 210 216 222 228 231 236 237 242 246 253 257 251 248 245 246 248 252 258 264 270 279 283 285 285 278 264 270 254 282 296 302 308 304
164 173 178 182 194 197 203 204 208 213 217 221 224 229 231 236 241 245 248 252 253 256 252 251 251 253 256 258 262 267 271 277 283 278 266 265 250 273 287 294 295 301 299
176 181 183 176 194 192 199 219 216 226 228 228 230 233 235 239 245 257 273 266 269 272 264 256 254 255 256 258 262 264 263 270 297 287 275 255 273 281 282 286 293 296 296
178 186 189 182 195 192 197 223 235 254 240 235 235 239 244 243 242 233 251 261 268 280 274 265 260 257 260 264 269 266 269 267 234 247 306 295 290 290 290 292 294 296 294
173 188 191 190 194 201 196 217 236 243 254 259 262 254 239 253 234 249 250 259 275 276 289 289 279 265 256 250 245 247 243 248 258 266 266 279 289 290 291 291 295 296 293
174 188 194 199 199 203 200 204 205 216 230 238 243 255 265 246 241 239 251 251 260 278 269 280 275 271 258 247 237 239 253 259 268 267 258 279 285 283 287 293 293 297 299
182 190 195 199 209 205 211 202 207 218 222 224 227 240 257 269 262 257 259 259 259 250 250 256 244 239 246 253 263 268 265 270 270 279 273 260 272 273 291 290 296 296 299
193 196 192 198 216 213 216 212 204 204 221 218 230 227 243 251 262 260 244 242 247 253 249 252 252 251 253 259 268 281 276 272 294 289 279 268 257 281 281 290 292 292 297
199 202 202 201 218 226 216 226 218 213 209 226 220 226 237 244 255 262 259 253 242 239 247 245 246 245 248 257 259 259 269 265 276 296 282 265 252 268 274 280 284 290 293
213 209 210 207 210 229 229 222 230 219 226 216 217 218 221 217 224 236 260 266 251 249 252 253 252 254 257 260 256 259 276 282 274 286 269 257 259 260 259 277 273 286 291
227 220 223 211 208 223 235 238 223 237 225 229 223 218 222 216 290 282 252 253 256 254 254 258 259 267 270 264 262 262 281 273 271 274 269 260 262 254 265 256 263 273 287
244 241 225 219 218 212 218 234 239 231 238 242 236 237 235 240 296 302 252 248 254 256 259 261 261 268 283 268 265 268 279 267 271 275 262 258 258 257 257 245 254 260 270
320 269 243 223 221 227 230 224 235 248 247 236 235 238 245 259 290 289 270 244 253 264 264 267 270 272 265 256 261 283 274 275 270 276 259 255 247 240 238 252 275 268 266
39 24 286 259 247 247 245 244 238 248 248 246 260 265 281 264 276 265 266 259 260 270 271 272 270 271 261 248 263 252 275 264 292 302 268 263 241 247 256 249 250 257 262
30 33 238 245 255 270 261 245 233 246 248 251 256 279 282 260 283 287 288 275 276 271 274 277 276 266 252 240 256 251 244 259 291 303 350 279 254 236 244 255 284 273 266
31 20 26 9 265 240 265 254 250 255 250 310 320 288 298 310 292 284 274 275 276 276 279 277 272 263 256 235 244 258 259 267 280 268 283 289 281 271 279 278 287 289 280
27 33 30 20 24 27 330 325 306 277 283 299 296 306 288 278 305 285 273 287 278 280 283 276 283 254 238 242 246 282 273 262 269 252 262 277 276 283 287 290 294 288 256